Edwards, CA

3:00 PM PDT on August 30, 2016 (GMT -0700)
Edwards AFB North Base

Weather History for K9L2 - March, 2013

Change the Weather History Date:

Sunday, March 3, 2013

  Actual Average (KEDW) Record (KEDW)
Temperature  
Mean Temperature 62 °F -  
Max Temperature 72 °F 62 °F 98 °F (2003)
Min Temperature 51 °F 34 °F 19 °F (2002)
Degree Days  
Heating Degree Days 4    
Growing Degree Days 12 (Base 50)    
Moisture  
Dew Point 29 °F    
Average Humidity 32    
Maximum Humidity 50    
Minimum Humidity 16    
Precipitation  
Precipitation 0.00 in - - ()
Sea Level Pressure  
Sea Level Pressure 29.97 in    
Wind  
Wind Speed 13 mph (West)    
Max Wind Speed 26 mph    
Max Gust Speed 34 mph    
Visibility 10 miles    
Events      
Averages and records for this station are not official NWS values.
T = Trace of Precipitation, MM = Missing Value Source: NWS Daily Summary

Daily Weather History Graph

Daily Weather History Graph

Search for Another Location

Airport or City:

Trip Planner

Search our weather history database for the weather conditions in past years. The results will help you decide how hot, cold, wet, or windy it might be!

Date:

Astronomy

Mar. 03, 2013 Rise Set
Actual Time 6:17 AM PST 5:49 PM PST
Civil Twilight 5:52 AM PST 6:14 PM PST
Nautical Twilight 5:23 AM PST 6:43 PM PST
Astronomical Twilight 4:53 AM PST 7:13 PM PST
Moon No Moon Rise 9:52 AM PST (3/3)
Length of Visible Light 12h 22m
Length of Day
11h 31m
Waning Gibbous, 62% of the Moon is Illuminated
Mar 3
Waning Gibbous
Mar 4
Last Quarter
Mar 11
New
Mar 19
First Quarter
Mar 27
Full

Hourly Weather History & Observations

Time (PST) Temp. Dew Point Humidity Pressure Visibility Wind Dir Wind Speed Gust Speed Precip Events Conditions
12:55 AM 59.0 °F 28.9 °F 32% 30.06 in 10.0 mi West 13.8 mph - N/A   Clear
1:55 AM 60.1 °F 28.9 °F 31% 30.05 in 10.0 mi WSW 9.2 mph - N/A   Partly Cloudy
2:55 AM 57.0 °F 28.9 °F 34% 30.02 in 10.0 mi SSW 5.8 mph - N/A   Clear
3:55 AM 54.0 °F 28.9 °F 38% 30.01 in 10.0 mi WNW 6.9 mph - N/A   Mostly Cloudy
4:55 AM 55.4 °F 21.2 °F 26% - 10.0 mi West 11.5 mph - N/A   Clear
5:55 AM 55.0 °F 19.9 °F 25% 30.02 in 10.0 mi West 10.4 mph - N/A   Scattered Clouds
6:55 AM 51.1 °F 21.0 °F 31% 30.02 in 10.0 mi West 4.6 mph - N/A   Mostly Cloudy
7:55 AM 62.1 °F 19.0 °F 19% 30.02 in 10.0 mi WSW 13.8 mph - N/A   Clear
8:55 AM 63.0 °F 21.0 °F 20% 30.02 in 10.0 mi SW 15.0 mph - N/A   Mostly Cloudy
9:55 AM 66.0 °F 21.9 °F 19% 30.01 in 10.0 mi West 8.1 mph - N/A   Overcast
10:55 AM 70.0 °F 21.0 °F 16% 29.97 in 10.0 mi SW 20.7 mph 27.6 mph N/A   Clear
11:55 AM 72.0 °F 26.1 °F 18% 29.93 in 10.0 mi SW 20.7 mph 34.5 mph N/A   Clear
1:55 PM 70.0 °F 32.0 °F 25% 29.90 in 10.0 mi WNW 23.0 mph 28.8 mph N/A   Mostly Cloudy
2:55 PM 68.0 °F 33.1 °F 27% 29.90 in 10.0 mi WNW 18.4 mph 26.5 mph N/A   Clear
3:55 PM 64.9 °F 34.0 °F 32% 29.91 in 10.0 mi WNW 23.0 mph 29.9 mph N/A   Mostly Cloudy
4:55 PM 63.0 °F 35.1 °F 35% 29.92 in 10.0 mi WNW 21.9 mph 29.9 mph N/A   Overcast
5:55 PM 60.1 °F 35.1 °F 39% 29.94 in 10.0 mi West 19.6 mph - N/A   Overcast
6:55 PM 59.0 °F 35.1 °F 41% 29.95 in 10.0 mi West 17.3 mph - N/A   Overcast
7:55 PM 57.0 °F 36.0 °F 45% 29.93 in 10.0 mi West 26.5 mph 33.4 mph N/A   Partly Cloudy
9:55 PM 55.0 °F 36.0 °F 49% 29.94 in 10.0 mi WSW 15.0 mph - N/A   Clear
10:55 PM 53.1 °F 35.1 °F 50% 29.93 in 10.0 mi SW 11.5 mph - N/A   Clear
11:55 PM 53.1 °F 35.1 °F 50% 29.93 in 10.0 mi WSW 13.8 mph - N/A   Clear